Location: ?????????
(53.2086°N, 54.0693°E)
Time: 13:05:51
(UTC+00:00)

Cosmos 2322 Rocket - Pass Details

Date: 08 December 2019
Orbit: 831 x 852 km, 71.0° (Epoch: 18 January)

Event Time Altitude Azimuth Distance (km) Brightness Sun altitude
Rises 14:44:30 0° 269° (W) 3,386 6.8 -22.3°
Reaches altitude 10° 14:47:38 10° 286° (WNW) 2,458 5.5 -22.7°
Maximum altitude 14:51:40 20° 332° (NNW) 1,876 4.2 -23.3°
Enters shadow 14:54:48 13° 11° (N) 2,252 4.2 -23.8°
